[[{"header":{"parameterUnit":"m.s-1","parameterCategory":1,"la1":30.2991,"la2":30.254,"lo1":-89.0895,"lo2":-89.0444,"dy":0.0017,"dx":0.0017,"nx":28,"ny":28,"refTime":"2024-03-19T21:00:00:Z","depth":0,"parameterNumber":2,"parameterNumberName":"U-component_of_WINDS"},"data":[0,0,0,0,0,0,0,0,0,0,0,0,0,0,0,0,0,0,0,0,0,0,0,0,0,0,0,0,0,0,0,0,0,0,0,0,0,0,0,0,0,0,0,0,0,0,0,0,0,0,0,0,0,0,0,0,0,0,-5.3581,-5.3581,0,-5.36,-5.3601,-5.3601,-5.3511,-5.3509,-5.3506,-5.3504,-5.3523,-5.3526,-5.3529,0,0,0,0,0,0,0,0,0,0,0,0,0,-5.3466,-5.3468,-5.3581,-5.3581,-5.3581,-5.36,-5.3601,-5.3601,-5.3512,-5.3509,-5.3506,-5.3503,-5.3522,-5.3526,-5.3529,0,0,0,0,0,0,0,0,0,0,0,0,0,-5.3504,-5.3469,-5.3581,-5.3539,-5.3536,-5.36,-5.3601,-5.3601,-5.3513,-5.3509,-5.3505,-5.3501,-5.3521,-5.3525,-5.353,-5.3635,0,0,-5.3543,-5.3545,0,0,0,0,0,0,0,0,-5.3502,-5.3508,-5.3545,-5.3542,-5.3538,-5.3549,-5.3567,-5.3612,-5.3514,-5.3521,-5.3504,-5.3499,-5.3535,-5.3538,-5.355,-5.3636,-5.3637,-5.3544,-5.3546,-5.3548,-5.3549,0,0,0,0,0,0,0,-5.3499,-5.3507,-5.3588,-5.3546,-5.3542,-5.3519,-5.352,-5.3575,-5.355,-5.352,-5.3514,-5.3517,-5.3532,-5.3546,-5.355,-5.3637,-5.3544,-5.3547,-5.355,-5.3552,-5.381,-5.3814,0,0,0,0,0,0,-5.3502,-5.3505,-5.3588,-5.3589,-5.351,-5.3525,-5.3526,-5.355,-5.3549,-5.3545,-5.3521,-5.3513,-5.3541,-5.3545,-5.355,-5.3673,-5.3548,-5.3552,-5.3555,-5.3806,-5.3811,-5.3816,0,0,0,0,0,0,-5.35,-5.351,-5.3587,-5.3545,-5.3553,-5.3531,-5.3558,-5.3552,-5.3566,-5.3549,-5.3544,-5.354,-5.3538,-5.3544,-5.3615,-5.3673,-5.3554,-5.3558,-5.3801,-5.3808,-5.3814,-5.392,0,0,0,0,0,0,-5.3497,-5.351,-5.355,-5.3547,-5.3556,-5.3651,-5.3562,-5.3555,-5.3574,-5.3564,-5.3566,-5.3562,-5.3535,-5.3609,-5.3619,-5.3676,-5.3562,-5.3796,-5.3804,-5.3812,-5.3911,-5.3929,-5.3945,0,0,0,0,0,-5.3493,-5.3579,-5.3552,-5.3563,-5.3605,-5.3655,-5.366,-5.3627,-5.3579,-5.3618,-5.3608,-5.3562,-5.3665,-5.3617,-5.3628,-5.3687,-5.3792,-5.3802,-5.3811,-5.3904,-5.3926,-5.3944,0,0,0,0,0,0,-5.3588,-5.3577,-5.3548,-5.3635,-5.3647,-5.3639,-5.3688,-5.3652,-5.3677,-5.3667,-5.3625,-5.3626,-5.3704,-5.3703,-5.3649,-5.3789,-5.372,-5.3732,-5.3787,-5.3808,-5.3824,-5.3822,-5.3565,0,0,0,0,0,-5.362,-5.3661,-5.3649,-5.3727,-5.3734,-5.3711,-5.3731,-5.3705,-5.3715,-5.372,-5.3714,-5.3726,-5.376,-5.3784,-5.3815,-5.3911,-5.391,-5.3958,-5.3975,-5.3988,-5.3999,-5.4049,-5.407,-5.3847,-5.3847,-5.3847,0,0,-5.3684,-5.3683,-5.3712,-5.3746,-5.3752,-5.3795,-5.3715,-5.3765,-5.3796,-5.3727,-5.3793,-5.379,-5.38,-5.3884,-5.392,-5.3885,-5.4061,-5.4001,-5.4012,-5.4014,-5.4061,-5.4082,-5.4101,-5.3853,-5.3852,-5.3851,0,0,-5.3823,-5.3828,-5.3893,-5.3901,-5.3911,-5.3895,-5.3911,-5.391,-5.3905,-5.3971,-5.392,-5.3957,-5.4019,-5.4028,-5.404,-5.4186,-5.4144,-5.4197,-5.4284,-5.4333,-5.4351,-5.4366,-5.4417,-5.4436,-5.4208,-5.4208,-5.4209,0,-5.3902,-5.3965,-5.3931,-5.3984,-5.4,-5.3941,-5.4006,-5.4016,-5.4036,-5.4049,-5.4009,-5.4085,-5.4088,-5.4173,-5.4208,-5.4221,-5.4237,-5.4196,-5.4351,-5.4366,-5.438,-5.4428,-5.4447,-5.4215,-5.4214,-5.4213,-5.4213,0,-5.4061,-5.4106,-5.4158,-5.4179,-5.4202,-5.4261,-5.4235,-5.4263,-5.4236,-5.4224,-5.4292,-5.4294,-5.4324,-5.4343,-5.4317,-5.4425,-5.4402,-5.4358,-5.4287,-5.4408,-5.4453,-5.4471,-5.4224,-5.4221,-5.422,-5.4218,0,0,-5.4258,-5.4261,-5.428,-5.4289,-5.4297,-5.4331,-5.4389,-5.4419,-5.4443,-5.4459,-5.4505,-5.456,-5.4519,-5.4534,-5.4508,-5.4552,-5.4667,-5.4502,-5.4502,-5.4532,-5.4785,-5.4817,-5.4838,-5.464,-5.4644,-5.4646,-5.4783,0,-5.4394,-5.4491,-5.4462,-5.456,-5.4601,-5.4546,-5.4595,-5.4606,-5.4597,-5.4631,-5.4621,-5.466,-5.4603,-5.4612,-5.4653,-5.4644,-5.4716,-5.4634,-5.4682,-5.4684,-5.4679,-5.4862,-5.4895,-5.5025,-5.4801,-5.4803,-5.4806,0,-5.4564,-5.4588,-5.469,-5.4691,-5.4708,-5.4753,-5.4778,-5.4812,-5.4823,-5.4813,-5.4831,-5.4797,-5.4853,-5.4784,-5.486,-5.4805,-5.4823,-5.4822,-5.4826,-5.4828,-5.4751,-5.4867,-5.5065,-5.5084,-5.4833,-5.4831,-5.4829,0,-5.4696,-5.4754,-5.4822,-5.4832,-5.4836,-5.4869,-5.4872,-5.4879,-5.49,-5.4922,-5.4935,-5.4965,-5.498,-5.5004,-5.4979,-5.4931,-5.5059,-5.4988,-5.5052,-5.5053,-5.508,-5.5078,-5.5282,-5.5095,-5.5095,-5.5094,-5.5094,0,-5.485,-5.4914,-5.4882,-5.4923,-5.4994,-5.4961,-5.5032,-5.5029,-5.5036,-5.5076,-5.5031,-5.507,-5.5036,-5.5071,-5.5053,-5.5118,-5.5126,-5.512,-5.5114,-5.5123,-5.5124,-5.5133,-5.5122,-5.5099,-5.5098,-5.5097,-5.5097,0,-5.5008,-5.4989,-5.506,-5.5058,-5.506,-5.5112,-5.511,-5.5149,-5.5138,-5.5189,-5.52,-5.5182,-5.5222,-5.52,-5.5241,-5.5229,-5.5314,-5.5296,-5.531,-5.5305,-5.537,-5.5363,-5.5585,-5.5612,-5.541,-5.5412,-5.5413,0,-5.5106,-5.5154,-5.5158,-5.5182,-5.5188,-5.5228,-5.5248,-5.5219,-5.5242,-5.5259,-5.5296,-5.5332,-5.5359,-5.5426,-5.5417,-5.5448,-5.543,-5.5506,-5.5434,-5.5442,-5.543,-5.5426,-5.5431,-5.552,-5.5522,-5.5524,-5.5525,0,-5.5281,-5.527,-5.5302,-5.5331,-5.5357,-5.5379,-5.5397,-5.5419,-5.539,-5.5418,-5.5459,-5.548,-5.5523,-5.5559,-5.5587,-5.559,-5.5553,-5.5549,-5.5565,-5.5573,-5.5579,-5.5575,-5.5347,-5.5543,-5.5541,-5.554,-5.5539,-5.5538,-5.5411,-5.5451,-5.5461,-5.5498,-5.5509,-5.5527,-5.5563,-5.5557,-5.559,-5.5622,-5.5603,-5.5651,-5.5662,-5.5695,-5.5703,-5.574,-5.5709,-5.5733,-5.5739,-5.5745,-5.5753,-5.5575,-5.5745,-5.5744,-5.5744,-5.5743,-5.5743,0,-5.5583,-5.5587,-5.5622,-5.5648,-5.5678,-5.5642,-5.566,-5.5687,-5.5729,-5.5743,-5.5771,-5.5818,-5.5854,-5.5848,-5.5881,-5.5911,-5.5895,-5.5921,-5.5917,-5.5918,-5.5779,-5.5761,-5.5933,-5.5933,-5.5933,-5.5933,-5.5933,-5.5933,-5.5676,-5.5742,-5.5732,-5.5803,-5.5806,-5.5853,-5.5866,-5.5883,-5.5893,-5.5948,-5.5977,-5.5974,-5.598,-5.6013,-5.6044,-5.6041,-5.6055,-5.6086,-5.6077,-5.5947,-5.5928,-5.591,-5.5893,-5.609,-5.609,-5.6213,-5.6214,-5.6215]},{"header":{"parameterUnit":"m.s-1","parameterCategory":1,"la1":30.2991,"la2":30.254,"lo1":-89.0895,"lo2":-89.0444,"dy":0.0017,"dx":0.0017,"nx":28,"ny":28,"refTime":"2024-03-19T21:00:00:Z","depth":0,"parameterNumber":3,"parameterNumberName":"V-component_of_WINDS"},"data":[0,0,0,0,0,0,0,0,0,0,0,0,0,0,0,0,0,0,0,0,0,0,0,0,0,0,0,0,0,0,0,0,0,0,0,0,0,0,0,0,0,0,0,0,0,0,0,0,0,0,0,0,0,0,0,0,0,0,2.0952,2.0951,0,2.0937,2.0937,2.0937,2.095,2.0951,2.0952,2.0952,2.0934,2.0933,2.0932,0,0,0,0,0,0,0,0,0,0,0,0,0,2.0989,2.0988,2.0952,2.0951,2.0951,2.0937,2.0937,2.0937,2.095,2.0951,2.0952,2.0952,2.0934,2.0933,2.0932,0,0,0,0,0,0,0,0,0,0,0,0,0,2.0973,2.0988,2.0952,2.0956,2.0957,2.0937,2.0937,2.0937,2.095,2.0951,2.0952,2.0953,2.0935,2.0933,2.0932,2.0906,0,0,2.0927,2.0927,0,0,0,0,0,0,0,0,2.0974,2.0972,2.0956,2.0956,2.0956,2.0947,2.0944,2.0927,2.095,2.0953,2.0952,2.0953,2.0937,2.0936,2.0931,2.0906,2.0905,2.0927,2.0926,2.0926,2.0925,0,0,0,0,0,0,0,2.0975,2.0973,2.0946,2.0956,2.0956,2.0959,2.0957,2.0941,2.094,2.0952,2.0953,2.0952,2.0938,2.0933,2.0931,2.0905,2.0927,2.0926,2.0925,2.0925,2.0859,2.0858,0,0,0,0,0,0,2.0976,2.0973,2.0946,2.0945,2.0968,2.0957,2.0956,2.0949,2.0941,2.094,2.0951,2.0952,2.0935,2.0933,2.093,2.0901,2.0926,2.0924,2.0924,2.0859,2.0858,2.0858,0,0,0,0,0,0,2.0977,2.0974,2.0947,2.096,2.0957,2.0956,2.0948,2.0948,2.0943,2.094,2.0939,2.0946,2.0935,2.0932,2.0913,2.09,2.0924,2.0922,2.086,2.0859,2.0858,2.084,0,0,0,0,0,0,2.0978,2.0974,2.0964,2.0959,2.0956,2.093,2.0947,2.0947,2.0941,2.0942,2.0935,2.0934,2.0936,2.0915,2.0911,2.0898,2.0921,2.0862,2.086,2.0858,2.0842,2.0839,2.0836,0,0,0,0,0,2.0979,2.0959,2.0964,2.096,2.0944,2.0929,2.0927,2.093,2.094,2.093,2.0928,2.0935,2.0902,2.0913,2.0909,2.0895,2.0862,2.086,2.0858,2.0843,2.0839,2.0836,0,0,0,0,0,0,2.0961,2.0958,2.0964,2.0941,2.0936,2.0932,2.0919,2.0925,2.0916,2.0918,2.0921,2.0919,2.0899,2.0895,2.0907,2.0871,2.0884,2.0881,2.0874,2.087,2.0867,2.0868,2.092,0,0,0,0,0,2.0954,2.0943,2.0941,2.0922,2.0919,2.092,2.0913,2.0916,2.091,2.0907,2.0904,2.0897,2.0885,2.0877,2.0867,2.0842,2.0841,2.0831,2.0828,2.0825,2.0822,2.081,2.0806,2.0851,2.0851,2.0851,0,0,2.094,2.0938,2.093,2.0918,2.0914,2.0902,2.0917,2.0904,2.0895,2.0905,2.0887,2.0884,2.0877,2.0855,2.0845,2.0851,2.081,2.0823,2.0821,2.0819,2.0808,2.0803,2.08,2.085,2.085,2.085,0,0,2.0909,2.0906,2.089,2.0886,2.088,2.0881,2.0877,2.0873,2.0872,2.0854,2.0862,2.0851,2.0831,2.0826,2.082,2.0789,2.0795,2.0786,2.0769,2.0757,2.0753,2.075,2.0739,2.0735,2.0783,2.0783,2.0783,0,2.0892,2.0875,2.088,2.0867,2.0861,2.0872,2.0856,2.0851,2.0842,2.0838,2.0845,2.0822,2.0817,2.0795,2.0787,2.0782,2.0778,2.0786,2.0753,2.075,2.0747,2.0737,2.0733,2.0782,2.0782,2.0782,2.0782,0,2.0855,2.0843,2.083,2.0823,2.0816,2.0801,2.0804,2.0797,2.0801,2.0801,2.0783,2.0779,2.0768,2.0763,2.0766,2.0741,2.0745,2.0753,2.0766,2.0742,2.0732,2.0728,2.078,2.0781,2.0781,2.0781,0,0,2.0809,2.0807,2.0802,2.0799,2.0795,2.0785,2.0771,2.0762,2.0756,2.0749,2.0737,2.0721,2.0729,2.0723,2.0726,2.0715,2.0692,2.0724,2.0724,2.0719,2.0665,2.0659,2.0654,2.0696,2.0695,2.0695,2.0665,0,2.0778,2.0755,2.076,2.0737,2.0726,2.0737,2.0725,2.072,2.0721,2.0711,2.0711,2.07,2.0711,2.0707,2.0698,2.0697,2.0681,2.0699,2.0684,2.0684,2.0686,2.0649,2.0642,2.0614,2.0661,2.0661,2.066,0,2.0738,2.0732,2.0708,2.0707,2.0702,2.0691,2.0684,2.0675,2.0671,2.0672,2.0666,2.0671,2.0657,2.0671,2.0652,2.0664,2.0659,2.0658,2.0657,2.0655,2.067,2.0646,2.0606,2.0601,2.0654,2.0655,2.0655,0,2.0708,2.0694,2.0678,2.0675,2.0673,2.0665,2.0663,2.066,2.0655,2.0648,2.0644,2.0636,2.0631,2.0624,2.0627,2.0637,2.0607,2.0621,2.0607,2.0607,2.0599,2.06,2.0557,2.0596,2.0597,2.0597,2.0597,0,2.0672,2.0657,2.0664,2.0654,2.0638,2.0645,2.0628,2.0628,2.0625,2.0615,2.0624,2.0614,2.0619,2.0609,2.0611,2.0595,2.0593,2.0593,2.0594,2.0592,2.0592,2.0588,2.059,2.0596,2.0596,2.0596,2.0596,0,2.0635,2.064,2.0623,2.0623,2.0623,2.0611,2.0611,2.0601,2.0603,2.0591,2.0588,2.059,2.058,2.0583,2.0571,2.0572,2.0552,2.0555,2.0554,2.0554,2.054,2.0542,2.0494,2.0488,2.0531,2.053,2.053,0,2.0612,2.0601,2.0601,2.0595,2.0594,2.0585,2.058,2.0586,2.058,2.0575,2.0567,2.0558,2.055,2.0533,2.0533,2.0525,2.0528,2.0512,2.0526,2.0525,2.0527,2.0528,2.0527,2.0508,2.0508,2.0507,2.0507,0,2.0571,2.0574,2.0567,2.0561,2.0555,2.055,2.0546,2.0541,2.0547,2.054,2.0531,2.0525,2.0515,2.0505,2.0498,2.0496,2.0502,2.0503,2.0499,2.0497,2.0497,2.0497,2.0546,2.0504,2.0504,2.0504,2.0504,2.0504,2.054,2.0531,2.053,2.0522,2.052,2.0517,2.0508,2.051,2.0502,2.0495,2.0499,2.0487,2.0484,2.0475,2.0472,2.0464,2.047,2.0464,2.0463,2.0461,2.0459,2.0499,2.0462,2.0462,2.0462,2.0462,2.0462,0,2.0499,2.05,2.0492,2.0487,2.0481,2.049,2.0486,2.048,2.0471,2.0468,2.0461,2.045,2.0442,2.0442,2.0434,2.0427,2.043,2.0425,2.0425,2.0425,2.0454,2.0458,2.0423,2.0423,2.0423,2.0423,2.0423,2.0423,2.0477,2.0463,2.0466,2.0451,2.0451,2.0441,2.0439,2.0435,2.0433,2.0421,2.0415,2.0416,2.0414,2.0406,2.0399,2.0399,2.0396,2.0389,2.0391,2.0418,2.0422,2.0426,2.043,2.0389,2.0389,2.0362,2.0361,2.0361]}]]